Home > Weather > Greeley > Past weeks

Flag for USA Past Weather in Greeley, Colorado, USA — Yesterday and Last 2 Weeks

Now
63 °F

Clear.


Feels Like: 63 °F
Forecast: 58 / 86 °F
Wind: 6 mph from Northeast

Location: Greeley / Weld

Current Time: Jul 28, 2016 at 4:44:57 AM

Latest Report: Jul 28, 2016 at 4:15 AM


Visibility: 10 mi

Pressure: 30.14 "Hg (25.49 "Hg at 1424m altitude)

Humidity: 83%

Dew Point: 57 °F

Location of GreeleyLocation

Past Weather in Greeley — Graph

°F

Greeley Temperature Yesterday

Maximum temperature yesterday: 91 °F (at 3:15 PM)
Minimum temperature yesterday: 54 °F (at 5:35 AM)
Average temperature yesterday: 72 °F

High & Low Weather Summary for the Past Weeks

 TemperatureHumidityPressure
High100 °F (Jul 23, 2:15 PM)100% (Jul 19, 3:35 AM)30.29 "Hg (Jul 19, 3:35 AM)
Low54 °F (Jul 13, 5:55 AM)12% (Jul 23, 2:15 PM)29.89 "Hg (Jul 16, 2:55 PM)
Average74 °F57%30.14 "Hg
* Reported Jul 13 3:15 AM — Jul 28 3:15 AM, Greeley, Weather by CustomWeather, © 2016

Note: Actual official high and low records may vary slightly from our data, if they occured in-between our weather recording intervals... More about our weather records

Advertising

Greeley Weather History for the Previous 24 Hours

Scroll right to see more
 ConditionsComfort  
Time TempWeatherWind HumidityBarometerVisibility
3:15 AM
Thu, Jul 28
61 °FClear.3 mph88%30.15 "Hg10 mi
2:55 AM63 °FClear.No wind83%30.16 "Hg10 mi
2:35 AM63 °FClear.7 mph83%30.16 "Hg10 mi
2:15 AM63 °FClear.6 mph83%30.16 "Hg10 mi
1:55 AM63 °FClear.9 mph83%30.17 "Hg10 mi
1:35 AM64 °FClear.8 mph83%30.19 "Hg10 mi
1:15 AM64 °FClear.7 mph83%30.21 "Hg10 mi
12:55 AM66 °FClear.7 mph83%30.21 "Hg10 mi
12:35 AM66 °FClear.No wind78%30.21 "Hg10 mi
12:15 AM64 °FClear.7 mph83%30.21 "Hg10 mi
11:55 PM
Wed, Jul 27
66 °FClear.6 mph78%30.21 "Hg10 mi
11:35 PM64 °FClear.5 mph78%30.21 "Hg10 mi
11:15 PM66 °FClear.5 mph73%30.22 "Hg10 mi
10:55 PM66 °FClear.3 mph73%30.21 "Hg10 mi
10:35 PM68 °FClear.5 mph69%30.21 "Hg10 mi
9:55 PM70 °FClear.6 mph64%30.19 "Hg9 mi
9:35 PM70 °FClear.5 mph73%30.18 "Hg6 mi
9:15 PM70 °FSunny.7 mph73%30.17 "Hg9 mi
8:55 PM72 °FSunny.3 mph73%30.15 "Hg10 mi
8:35 PM73 °FSunny.5 mph69%30.14 "Hg10 mi
8:15 PM75 °FSunny.No wind61%30.13 "Hg10 mi
7:55 PM79 °FSunny.5 mph51%30.12 "Hg10 mi
7:35 PM79 °FSunny.3 mph51%30.11 "Hg10 mi
7:15 PM79 °FSunny.3 mph48%30.10 "Hg10 mi
6:55 PM79 °FSunny.5 mph51%30.11 "Hg10 mi
6:35 PM81 °FSunny.10 mph45%30.11 "Hg10 mi
5:55 PM88 °FThunderstorms. Sunny.16 mph31%30.13 "Hg10 mi
5:35 PM90 °FThunderstorms. Sunny.9 mph29%30.09 "Hg10 mi
5:15 PM91 °FThundershowers. Sunny.8 mph28%30.09 "Hg10 mi
4:55 PM91 °FSunny.9 mph28%30.09 "Hg10 mi
4:35 PM91 °FSunny.8 mph28%30.10 "Hg10 mi
4:15 PM91 °FSunny.6 mph28%30.11 "Hg10 mi
3:55 PM91 °FSunny.7 mph30%30.11 "Hg10 mi
3:35 PM90 °FSunny.3 mph31%30.12 "Hg10 mi
3:15 PM91 °FSunny.6 mph32%30.13 "Hg10 mi
2:55 PM90 °FSunny.10 mph33%30.13 "Hg10 mi
2:35 PM88 °FSunny.8 mph33%30.14 "Hg10 mi
2:15 PM88 °FSunny.6 mph33%30.14 "Hg10 mi
1:55 PM88 °FSunny.8 mph33%30.15 "Hg10 mi
1:35 PM84 °FSunny.9 mph40%30.15 "Hg10 mi
1:15 PM84 °FSunny.9 mph37%30.16 "Hg10 mi
12:55 PM84 °FSunny.7 mph40%30.17 "Hg10 mi
12:35 PM82 °FSunny.10 mph42%30.18 "Hg10 mi
11:55 AM81 °FSunny.8 mph45%30.19 "Hg10 mi
11:35 AM79 °FSunny.9 mph48%30.20 "Hg10 mi
11:15 AM79 °FSunny.9 mph48%30.20 "Hg10 mi
10:55 AM77 °FSunny.8 mph51%30.21 "Hg10 mi
10:35 AM75 °FSunny.7 mph57%30.21 "Hg10 mi
10:15 AM75 °FSunny.7 mph57%30.21 "Hg10 mi
9:55 AM73 °FSunny.12 mph57%30.21 "Hg10 mi
9:35 AM73 °FSunny.13 mph57%30.19 "Hg10 mi
9:15 AM72 °FSunny.10 mph61%30.20 "Hg10 mi
8:55 AM70 °FSunny.10 mph64%30.21 "Hg10 mi
8:35 AM68 °FSunny.7 mph64%30.21 "Hg10 mi
8:15 AM66 °FSunny.10 mph64%30.20 "Hg10 mi
7:55 AM64 °FSunny.8 mph64%30.20 "Hg10 mi
7:35 AM63 °FSunny.7 mph68%30.20 "Hg10 mi
7:15 AM61 °FSunny.9 mph68%30.19 "Hg10 mi
6:55 AM59 °FSunny.5 mph77%30.17 "Hg10 mi
6:35 AM57 °FClear.No wind82%30.16 "Hg10 mi
5:55 AM54 °FClear.7 mph88%30.15 "Hg10 mi
5:35 AM54 °FClear.7 mph82%30.15 "Hg10 mi
5:15 AM55 °FClear.7 mph82%30.14 "Hg10 mi
4:55 AM55 °FClear.6 mph82%30.14 "Hg10 mi
4:35 AM55 °FClear.8 mph77%30.14 "Hg10 mi
4:15 AM55 °FClear.8 mph82%30.14 "Hg10 mi
Weather by CustomWeather, © 2016

See weather overviewHow to use our weather pages